Waarnemingen

Advertentie
Mijn weer
Freiburg, Duitsland (10803): temperatuur & dauwpunt: 08.08.2018 17:00:00 - 14.08.2018 17:00:00 (CEST)Freiburg, Duitsland (10803): temperatuur 5cm & temperatuur -5cm: 08.08.2018 17:00:00 - 14.08.2018 17:00:00 (CEST)Freiburg, Duitsland (10803): temperatuur -20cm & temperatuur -100cm: 08.08.2018 17:00:00 - 14.08.2018 17:00:00 (CEST)Freiburg, Duitsland (10803): windsnelheid & windstoten: 08.08.2018 17:00:00 - 14.08.2018 17:00:00 (CEST)Freiburg, Duitsland (10803): windrichting: 08.08.2018 17:00:00 - 14.08.2018 17:00:00 (CEST)Freiburg, Duitsland (10803): luchtdruk: 08.08.2018 17:00:00 - 14.08.2018 17:00:00 (CEST)Freiburg, Duitsland (10803): zicht: 08.08.2018 17:00:00 - 14.08.2018 17:00:00 (CEST)Freiburg, Duitsland (10803): Zonneschijnduur: 08.08.2018 17:00:00 - 14.08.2018 17:00:00 (CEST)Freiburg, Duitsland (10803): neerslag: 08.08.2018 17:00:00 - 14.08.2018 17:00:00 (CEST)
Datum & Tijd tt [°C] td [°C] tt 5cm [°C] tt -5cm [°C] tt -20cm [°C] tt -100cm [°C] ff [km/u] ff [kn] fx [km/u] fx [kn] dd ppp [hPa] vv [km] sd [min] rr [mm]
14.08.2018 17:00:00 25,1 9,7 29,8 28,9 24,0 22,3 14 8 27 15 NNW 1015,8 62 42 0,0
14.08.2018 16:00:00 24,4 10,5 27,9 28,5 23,6 22,3 10 5 23 12 NNW 1015,8 70 39 0,0
14.08.2018 15:00:00 24,9 11,8 31,3 28,1 23,1 22,3 13 7 23 12 N 1015,7 70 41 0,0
14.08.2018 14:00:00 23,9 11,5 29,9 27,3 22,7 22,4 8 4 21 11 N 1016,0 66 34 0,0
14.08.2018 13:00:00 22,2 12,5 24,4 25,5 22,3 22,4 13 7 19 10 NNW 1016,2 70 23 0,0
14.08.2018 12:00:00 22,2 12,1 26,6 24,8 21,8 22,4 7 4 19 11 N 1016,1 70 15 0,0
14.08.2018 11:00:00 21,7 13,7 25,2 24,9 21,4 22,4 5 3 9 5 N 1016,0 70 43 0,0
14.08.2018 10:00:00 19,6 15,7 20,5 21,1 21,2 22,4 3 1 13 7 NW 1016,1 70 7 0,0
14.08.2018 09:00:00 19,0 15,3 20,4 20,1 21,2 22,4 8 4 12 6 W 1015,8 70 12 0,0
14.08.2018 08:00:00 18,7 15,2 19,8 18,4 21,3 22,4 8 4 13 7 Z 1015,2 63 5 0,0
14.08.2018 07:00:00 16,5 15,3 15,9 17,5 21,5 22,4 5 3 11 6 WZW 1014,9 54 0 0,0
14.08.2018 06:00:00 17,4 15,4 15,6 17,9 21,7 22,4 5 3 13 7 ZW 1014,2 70 0 0,0
14.08.2018 05:00:00 18,0 15,7 16,4 18,7 21,9 22,4 5 3 10 5 ZW 1013,9 64 0 0,0
14.08.2018 04:00:00 18,7 15,9 17,9 18,8 22,0 22,4 6 4 11 6 Z 1013,6 63 0 0,0
14.08.2018 03:00:00 18,6 16,3 17,8 18,9 22,2 22,4 6 3 11 6 ZZO 1013,5 58 0 0,0
14.08.2018 02:00:00 17,8 16,6 17,2 19,0 22,4 22,4 2 1 5 3 ZZW 1013,7 38 0 0,0
14.08.2018 01:00:00 17,2 16,2 16,8 19,0 22,7 22,5 5 3 10 5 NNW 1013,6 42 0 0,0
14.08.2018 00:00:00 18,3 16,4 17,3 19,3 22,9 22,5 0 0 6 3 N 1012,7 55 0 0,0
13.08.2018 23:00:00 19,0 15,5 17,6 19,6 23,2 22,5 3 2 16 9 O 1012,5 70 0 0,0
13.08.2018 22:00:00 19,2 15,9 18,1 19,8 23,5 22,5 11 6 19 10 NNW 1012,2 70 0 0,0
13.08.2018 21:00:00 20,5 16,1 19,1 20,4 23,8 22,5 10 6 18 10 Z 1011,1 70 0 0,0
13.08.2018 20:00:00 21,0 16,5 20,4 21,6 24,0 22,5 16 9 24 13 Z 1010,3 70 2 0,0
13.08.2018 19:00:00 21,4 17,2 21,9 23,2 24,0 22,5 11 6 17 9 Z 1010,4 70 1 0,0
13.08.2018 18:00:00 22,5 16,5 23,2 24,5 23,9 22,5 9 5 16 9 ZZW 1010,5 70 5 0,1
13.08.2018 17:00:00 21,2 17,0 20,0 23,6 23,8 22,5 5 3 42 23 W 1010,1 60 8 4,5
13.08.2018 16:00:00 26,2 15,6 30,6 25,1 23,6 22,5 17 9 39 21 ZW 1009,9 67 18 0,0
13.08.2018 15:00:00 23,9 16,3 25,5 23,5 23,4 22,5 16 9 36 20 WZW 1010,6 70 2 0,0
13.08.2018 14:00:00 23,5 15,8 25,5 23,8 23,3 22,5 21 11 36 19 ZW 1011,2 67 9 0,0
13.08.2018 13:00:00 22,3 16,9 21,7 23,0 23,2 22,5 16 9 26 14 ZZW 1011,7 70 0 0,1
13.08.2018 12:00:00 19,5 16,9 19,0 21,0 23,3 22,5 15 8 27 14 Z 1012,4 27 0 1,4
13.08.2018 11:00:00 19,6 16,1 18,2 21,1 23,4 22,5 15 8 30 16 Z 1012,6 30 0 0,4
13.08.2018 10:00:00 20,6 15,1 20,8 20,9 23,5 22,5 15 8 25 13 ZZW 1011,9 70 0 0,0
13.08.2018 09:00:00 20,2 15,1 19,6 20,8 23,6 22,5 24 13 49 26 ZZW 1012,2 70 0 0,1
13.08.2018 08:00:00 22,4 14,3 21,9 21,5 23,8 22,5 41 22 61 33 ZZW 1011,2 48 6 0,1
13.08.2018 07:00:00 21,9 12,4 20,2 19,3 24,1 22,5 11 6 21 11 ZZW 1009,8 62 0 0,0
13.08.2018 06:00:00 17,5 11,8 14,1 19,6 24,4 22,5 5 3 15 8 NNO 1009,8 66 0 0,0
13.08.2018 05:00:00 18,6 11,6 16,9 19,9 24,8 22,5 15 8 24 13 ZW 1010,1 64 0 0,0
13.08.2018 04:00:00 15,7 11,3 13,4 20,2 25,2 22,6 3 2 6 4 NO 1010,0 70 0 0,0
13.08.2018 03:00:00 16,1 10,9 13,4 20,7 25,6 22,6 2 1 5 3 ZO 1010,3 51 0 0,0
13.08.2018 02:00:00 16,6 11,4 14,3 21,4 26,1 22,6 2 1 8 4 O 1010,9 51 0 0,0
13.08.2018 01:00:00 19,8 10,1 15,7 22,2 26,5 22,6 3 2 7 4 Z 1011,1 70 0 0,0
13.08.2018 00:00:00 21,4 10,3 15,8 23,1 27,0 22,6 4 2 11 6 Z 1011,5 69 0 0,0
12.08.2018 23:00:00 22,7 10,2 18,9 24,6 27,4 22,6 9 5 19 10 Z 1011,3 70 0 0,0
12.08.2018 22:00:00 23,9 10,2 20,4 25,6 27,8 22,6 8 4 11 6 ZZO 1011,1 59 0 0,0
12.08.2018 21:00:00 26,5 9,5 20,6 27,7 28,1 22,6 8 4 16 8 ZW 1010,8 70 3 0,0
12.08.2018 20:00:00 29,5 8,9 29,2 30,5 28,2 22,6 11 6 22 12 ZZW 1010,6 70 60 0,0
12.08.2018 19:00:00 30,4 8,3 32,2 33,3 28,0 22,6 16 8 33 18 ZW 1011,0 58 60 0,0
12.08.2018 18:00:00 30,4 8,3 34,1 35,7 27,6 22,6 16 9 34 19 ZW 1011,5 51 60 0,0
12.08.2018 17:00:00 29,8 7,3 34,9 37,3 27,0 22,6 16 9 34 19 ZW 1012,3 41 60 0,0
12.08.2018 16:00:00 29,9 6,3 36,4 38,3 26,2 22,6 14 8 29 16 WZW 1013,1 34 60 0,0
12.08.2018 15:00:00 28,7 5,8 34,6 38,1 25,3 22,6 15 8 27 15 WZW 1014,2 31 60 0,0
12.08.2018 14:00:00 27,5 9,2 34,9 37,2 24,4 22,6 10 5 21 11 ZW 1015,0 26 60 0,0
12.08.2018 13:00:00 26,1 8,5 32,7 35,1 23,5 22,7 7 4 16 9 W 1016,0 33 60 0,0
12.08.2018 12:00:00 23,9 8,7 30,7 32,0 22,8 22,7 7 4 19 10 W 1016,9 41 60 0,0
12.08.2018 11:00:00 21,9 8,7 27,7 28,4 22,3 22,7 6 3 13 7 ZW 1017,6 65 60 0,0
12.08.2018 10:00:00 19,5 8,8 23,7 24,5 22,0 22,7 5 3 12 6 WZW 1017,9 37 60 0,0
12.08.2018 09:00:00 16,9 8,9 22,0 20,6 22,1 22,7 6 3 8 4 N 1018,6 59 60 0,0
12.08.2018 08:00:00 14,4 9,1 17,5 17,3 22,4 22,7 2 1 5 3 N 1018,9 50 53 0,0
12.08.2018 07:00:00 10,7 8,3 7,4 15,7 22,9 22,7 0 0 5 3 N 1019,9 63 0 0,0
12.08.2018 06:00:00 10,7 7,8 7,2 16,1 23,3 22,7 3 2 7 4 NO 1019,8 25 0 0,0
12.08.2018 05:00:00 11,5 8,2 7,2 16,6 23,8 22,7 5 3 8 4 WNW 1020,2 24 0 0,0
12.08.2018 04:00:00 10,3 7,2 8,0 17,3 24,3 22,7 3 2 7 4 NNW 1020,9 64 0 0,0
12.08.2018 03:00:00 11,8 8,1 8,4 18,0 24,8 22,7 3 2 6 4 N 1021,2 68 0 0,0
12.08.2018 02:00:00 12,9 8,8 9,7 18,8 25,3 22,7 4 2 7 4 N 1021,6 70 0 0,0
12.08.2018 01:00:00 13,5 9,1 10,2 19,6 25,8 22,7 4 2 6 3 N 1022,0 68 0 0,0
12.08.2018 00:00:00 14,5 8,7 10,9 20,7 26,3 22,7 3 1 6 4 ONO 1022,2 50 0 0,0
11.08.2018 23:00:00 16,0 9,3 12,3 22,0 26,8 22,7 3 2 7 4 NNO 1022,1 70 0 0,0
11.08.2018 22:00:00 18,4 9,2 14,5 23,6 27,3 22,7 5 3 7 4 N 1021,8 70 0 0,0
11.08.2018 21:00:00 21,4 8,3 17,9 25,7 27,6 22,8 6 3 13 7 N 1021,2 70 2 0,0
11.08.2018 20:00:00 23,7 7,4 24,1 28,3 27,8 22,8 6 4 14 7 N 1021,0 70 49 0,0
11.08.2018 19:00:00 24,9 6,9 28,0 30,7 27,7 22,8 8 4 18 10 N 1020,9 70 42 0,0
11.08.2018 18:00:00 24,4 6,9 26,4 34,0 27,3 22,8 11 6 19 10 N 1021,1 70 49 0,0
11.08.2018 17:00:00 25,8 6,4 32,3 36,5 26,7 22,8 12 7 23 12 W 1021,5 51 60 0,0
11.08.2018 16:00:00 26,3 6,4 35,3 36,4 26,1 22,8 12 7 24 13 NW 1021,9 42 47 0,0
11.08.2018 15:00:00 25,0 6,6 32,7 33,8 25,5 22,8 6 3 24 13 N 1022,6 70 31 0,0
11.08.2018 14:00:00 24,2 7,0 33,0 35,0 24,8 22,8 11 6 24 13 WZW 1023,2 65 52 0,0
11.08.2018 13:00:00 23,3 7,2 30,7 32,3 24,1 22,8 10 6 27 15 W 1023,9 70 51 0,0
11.08.2018 12:00:00 22,3 7,7 28,4 30,6 23,5 22,8 15 8 26 14 WZW 1024,3 70 55 0,0
11.08.2018 11:00:00 21,8 7,9 27,7 28,2 23,1 22,8 11 6 21 12 W 1024,7 40 60 0,0
11.08.2018 10:00:00 19,9 8,8 23,9 24,0 22,9 22,8 10 6 16 8 WZW 1025,1 70 25 0,0
11.08.2018 09:00:00 19,0 8,3 23,7 22,0 22,9 22,8 3 2 8 4 NW 1025,2 70 57 0,0
11.08.2018 08:00:00 16,8 8,9 20,8 19,4 23,1 22,8 3 1 5 3 N 1025,2 70 39 0,0
11.08.2018 07:00:00 13,0 9,2 11,7 17,3 23,5 22,8 3 2 6 3 ZO 1025,4 57 0 0,0
11.08.2018 06:00:00 10,5 8,5 7,8 17,1 24,0 22,8 0 0 5 3 N 1025,3 70 0 0,0
11.08.2018 05:00:00 11,6 8,7 8,6 17,8 24,4 22,8 2 1 4 2 NW 1024,7 70 0 0,0
11.08.2018 04:00:00 12,1 8,8 9,9 18,6 24,9 22,8 3 2 4 2 NNO 1024,6 70 0 0,0
11.08.2018 03:00:00 13,9 9,1 10,4 19,3 25,3 22,8 0 0 7 4 N 1024,3 70 0 0,0
11.08.2018 02:00:00 13,8 9,0 12,6 20,2 25,8 22,8 3 2 8 4 NNW 1024,4 70 0 0,0
11.08.2018 01:00:00 15,6 8,6 11,9 20,8 26,2 22,9 3 2 6 3 ZZO 1024,0 70 0 0,0
11.08.2018 00:00:00 16,3 8,3 12,8 21,7 26,7 22,9 3 2 5 3 ZZO 1023,7 70 0 0,0
10.08.2018 23:00:00 18,9 7,6 14,3 22,9 27,2 22,9 2 1 16 8 W 1023,3 70 0 0,0
10.08.2018 22:00:00 21,5 7,1 18,5 24,6 27,6 22,9 8 4 13 7 ZZW 1022,6 70 0 0,0
10.08.2018 21:00:00 23,0 6,6 21,0 26,0 27,9 22,9 9 5 21 11 ZW 1022,1 70 0 0,0
10.08.2018 20:00:00 24,1 5,8 23,0 28,2 28,0 22,9 16 9 31 17 ZW 1021,5 70 50 0,0
10.08.2018 19:00:00 25,4 5,4 27,4 31,0 28,0 22,9 19 10 34 18 WZW 1021,5 43 60 0,0
10.08.2018 18:00:00 26,1 4,2 30,2 33,5 27,7 22,9 17 9 36 19 ZW 1021,7 53 55 0,0
10.08.2018 17:00:00 25,7 4,4 31,0 34,6 27,3 22,9 18 10 35 19 WZW 1022,0 64 47 0,0
10.08.2018 16:00:00 23,8 6,2 27,8 34,6 26,8 22,9 12 6 23 13 NW 1022,7 70 37 0,0
10.08.2018 15:00:00 24,4 6,5 28,2 35,2 26,1 22,9 15 8 27 15 ZZW 1023,2 70 38 0,0
10.08.2018 14:00:00 23,9 5,8 29,9 35,9 25,3 22,9 13 7 25 14 WZW 1023,6 53 57 0,0
10.08.2018 13:00:00 23,3 8,3 30,7 33,7 24,6 22,9 10 5 27 14 WZW 1024,2 40 60 0,0
10.08.2018 12:00:00 21,7 9,0 28,5 30,6 24,0 22,9 10 6 27 14 WZW 1024,5 51 60 0,0
10.08.2018 11:00:00 19,9 9,3 25,5 27,4 23,7 22,9 10 6 24 13 WZW 1025,0 55 60 0,0
10.08.2018 10:00:00 18,7 10,2 22,3 24,0 23,6 22,9 13 7 21 11 WZW 1025,2 60 60 0,0
10.08.2018 09:00:00 16,9 11,4 19,3 20,5 23,8 22,9 10 5 14 8 WZW 1025,3 70 27 0,0
10.08.2018 08:00:00 15,2 11,6 14,5 19,0 24,1 22,9 3 2 7 4 WZW 1025,2 70 9 0,0
10.08.2018 07:00:00 14,6 11,8 13,7 18,7 24,5 22,9 6 3 13 7 W 1024,7 70 0 0,0
10.08.2018 06:00:00 14,8 11,9 13,9 18,9 24,9 22,9 6 3 13 7 WZW 1023,9 70 0 0,0
10.08.2018 05:00:00 15,4 12,2 14,0 19,3 25,3 22,9 10 5 18 10 WNW 1023,3 70 0 0,0
10.08.2018 04:00:00 15,9 13,0 14,2 20,1 25,7 22,9 10 5 19 11 WNW 1022,9 70 0 0,0
10.08.2018 03:00:00 17,5 14,0 16,0 21,1 26,1 22,9 13 7 24 13 ZW 1022,2 70 0 0,0
10.08.2018 02:00:00 18,7 14,8 17,7 22,2 26,5 22,9 16 9 32 18 ZW 1021,5 70 0 0,2
10.08.2018 01:00:00 18,9 16,7 17,7 23,2 26,8 22,9 24 13 44 24 ZW 1020,7 13 0 0,1
10.08.2018 00:00:00 21,9 14,8 21,5 24,0 27,1 22,9 20 11 33 18 ZZW 1018,8 70 0 0,0
09.08.2018 23:00:00 22,0 14,6 21,3 24,4 27,4 22,9 21 11 40 21 ZZW 1018,1 70 0 0,0
09.08.2018 22:00:00 22,6 14,2 22,2 25,3 27,7 22,9 22 12 33 18 ZW 1017,8 70 0 0,0
09.08.2018 21:00:00 22,9 14,2 22,6 26,1 28,0 22,9 21 11 40 21 ZZW 1017,1 70 0 0,0
09.08.2018 20:00:00 23,4 14,2 23,5 27,2 28,2 22,9 28 15 47 26 ZW 1016,4 70 0 0,0
09.08.2018 19:00:00 24,8 14,6 25,4 28,7 28,3 22,9 23 12 39 21 ZW 1015,0 70 3 0,0
09.08.2018 18:00:00 24,7 14,5 25,9 29,2 28,4 22,9 26 14 48 26 ZZW 1013,9 57 0 0,0
09.08.2018 17:00:00 25,7 14,4 27,5 31,2 28,3 22,9 31 17 54 29 ZW 1014,5 51 13 0,0
09.08.2018 16:00:00 26,6 13,3 29,9 31,9 28,4 22,8 28 15 47 25 ZW 1014,1 42 20 0,0
09.08.2018 15:00:00 23,9 14,9 24,4 29,3 28,3 22,8 28 15 86 47 ZW 1014,6 47 0 0,4
09.08.2018 14:00:00 30,9 14,2 32,3 35,5 27,7 22,8 19 11 39 21 ZW 1011,3 49 32 0,0
09.08.2018 13:00:00 31,0 16,2 36,7 36,9 27,0 22,8 9 5 16 9 WNW 1010,1 29 48 0,0
09.08.2018 12:00:00 29,6 15,7 36,0 35,5 26,3 22,8 3 2 13 7 N 1010,7 37 60 0,0
09.08.2018 11:00:00 26,5 15,5 32,7 31,9 25,9 22,8 6 4 16 9 NNO 1011,7 32 60 0,0
09.08.2018 10:00:00 24,5 15,7 30,9 28,5 25,7 22,8 3 2 13 7 N 1011,8 34 60 0,0
09.08.2018 09:00:00 22,8 16,3 26,7 25,3 25,8 22,8 5 3 9 5 N 1012,3 37 59 0,0
09.08.2018 08:00:00 20,2 16,5 22,2 22,9 26,1 22,8 4 2 12 6 NNW 1012,6 27 20 0,0
09.08.2018 07:00:00 18,6 16,4 18,5 22,4 26,4 22,8 10 5 13 7 NNW 1013,1 23 0 0,0
09.08.2018 06:00:00 18,3 16,1 17,2 22,1 26,7 22,8 3 2 10 5 N 1013,2 23 0 0,0
09.08.2018 05:00:00 19,3 15,5 16,4 22,5 27,1 22,8 5 3 17 9 ZZO 1014,3 35 0 0,0
09.08.2018 04:00:00 17,8 16,9 16,2 22,8 27,5 22,8 8 4 11 6 W 1013,9 18 0 0,0
09.08.2018 03:00:00 18,2 17,0 16,3 23,5 28,0 22,8 0 0 7 4 N 1014,0 20 0 0,0
09.08.2018 02:00:00 18,3 17,0 16,6 24,2 28,4 22,8 2 1 5 3 NNW 1014,4 16 0 0,0
09.08.2018 01:00:00 19,1 17,6 17,5 25,1 28,9 22,8 3 1 10 5 W 1014,5 19 0 0,0
09.08.2018 00:00:00 20,3 17,9 19,0 26,3 29,3 22,8 4 2 10 5 NO 1014,5 24 0 0,0
08.08.2018 23:00:00 22,2 18,2 21,8 27,5 29,7 22,8 6 4 11 6 NO 1014,4 29 0 0,0
08.08.2018 22:00:00 24,5 17,0 23,9 29,1 30,0 22,8 8 5 22 12 Z 1014,4 34 0 0,0
08.08.2018 21:00:00 24,7 15,6 25,3 31,2 30,2 22,8 7 4 28 15 O 1013,8 41 1 0,0
08.08.2018 20:00:00 29,6 16,5 32,2 33,8 30,2 22,8 13 7 19 10 NNW 1012,5 15 60 0,0
08.08.2018 19:00:00 30,1 16,1 33,7 34,9 30,0 22,8 8 5 26 14 NNW 1012,1 32 38 0,0
08.08.2018 18:00:00 30,7 16,2 37,1 36,8 29,8 22,8 11 6 31 17 NNW 1011,8 16 40 0,0
08.08.2018 17:00:00 31,0 15,2 35,4 37,2 29,4 22,8 14 8 29 16 W 1012,1 25 39 0,0

tt = temperatuur
td = dauwpunt
tt 5cm = temperatuur 5cm
tt -5cm = temperatuur -5cm
tt -20cm = temperatuur -20cm
tt -100cm = temperatuur -100cm
ff = windsnelheid
fx = windstoten
dd = windrichting
ppp = luchtdruk
vv = zicht
sd = Zonneschijnduur
rr = neerslag

Weerstations in de omgeving